CYMU

Umiujaq Airport

ICAO Code CYMU
IATA Code YUD
Name Umiujaq Airport
Location Umiujaq, Quebec, CA
Elevation 251 Feet / 76.5 Meters
Latitude 56.53611111
Longitude -76.51833333
METAR CYMU 251800Z 31009KT 15SM OVC016 02/M01 A3026 RMK SC8 SLP255
Extra information Display Charts and CFS
Display NOTAMS
Runway Length Width Surface Elevation
02 3521 ft 100 ft GRAVEL 247 ft
20 3521 ft 100 ft GRAVEL 251 ft